Voltar ao catálogo

STARLINK-35154

AtivoComunicaçõesSSO
NORAD 65612·PAYLOAD·🇺🇸 United States

Lançado Sep 13, 2025 de Cape Canaveral Space Force Station

Loading…

Próximas Passagens (próximas 24 horas)

TLE

AtualizadoSource: CelesTrak SupGP

Época: Sep 14, 2026, 21:19 UTC

1 65612C 25207W   26257.88868056 -.00031695  00000+0 -19274-2 0  2574
2 65612  97.2845 320.6126 0001732  93.5439 328.6958 15.10555524    18

Acompanhe STARLINK-35154 em tempo real com AllMySat

Download on the App Store